Date,TemperatureHighF,TemperatureAvgF,TemperatureLowF,DewpointHighF,DewpointAvgF,DewpointLowF,HumidityHigh,HumidityAvg,HumidityLow,PressureMaxIn,PressureMinIn,WindSpeedMaxMPH,WindSpeedAvgMPH,GustSpeedMaxMPH,PrecipitationSumIn
2013-8-1,76.0,67.5,60.0,59.0,57.1,52.0,86,71,45,30.01,29.86,3,1,9,0.00
2013-8-2,75.0,69.5,59.0,58.0,54.0,51.0,83,59,46,30.04,29.88,9,5,16,0.00
2013-8-3,77.0,66.0,54.0,57.0,54.0,51.0,91,67,45,30.16,30.04,11,4,15,0.00
2013-8-4,73.0,65.1,57.0,62.0,57.2,53.0,97,76,59,30.19,29.90,12,5,21,0.01
2013-8-5,81.0,67.5,57.0,65.0,60.8,56.0,98,81,45,29.90,29.77,13,4,19,0.01
2013-8-6,84.0,71.2,61.0,64.0,60.2,55.0,94,71,39,29.85,29.68,28,11,37,0.00
2013-8-7,75.0,63.9,52.0,59.0,53.5,50.0,96,72,45,29.99,29.85,8,4,13,0.00
2013-8-8,76.0,66.7,58.0,59.0,56.4,53.0,95,72,48,30.02,29.91,13,6,18,0.00
2013-8-9,78.0,64.2,51.0,54.0,50.4,46.0,90,65,34,30.14,30.02,15,6,25,0.00
2013-8-10,74.0,61.5,50.0,62.0,54.7,47.0,95,80,50,30.17,30.01,8,4,12,0.01
2013-8-11,80.0,67.6,55.0,62.0,59.3,54.0,99,77,50,30.05,29.98,10,4,14,0.01
2013-8-12,79.0,67.6,56.0,61.0,55.2,47.0,93,68,32,30.08,30.03,11,4,21,0.00
2013-8-13,75.0,63.4,51.0,55.0,48.7,-99.9,90,64,38,30.19,30.08,13,6,18,0.00
2013-8-14,77.0,63.5,52.0,60.0,52.4,-99.9,93,73,46,30.14,30.01,12,4,15,0.00
2013-8-15,77.0,60.7,54.0,61.0,44.9,-99.9,98,73,43,30.07,30.02,9,3,16,0.00
2013-8-16,73.0,60.7,52.0,62.0,53.5,-99.9,99,83,61,30.11,30.05,10,4,18,0.00
2013-8-17,83.0,67.9,57.0,69.0,61.4,-99.9,99,83,60,30.06,29.89,15,7,22,0.00
2013-8-18,83.0,72.2,62.0,71.0,65.9,60.0,95,81,63,29.93,29.81,12,7,21,0.00
2013-8-19,88.0,71.3,64.0,72.0,57.0,-99.9,97,80,55,29.86,29.75,7,3,14,0.00
2013-8-20,96.0,77.3,64.0,74.0,66.4,-99.9,99,76,35,29.76,29.66,15,5,27,0.00
2013-8-21,83.0,74.0,64.0,72.0,62.6,57.0,95,70,49,29.98,29.70,17,9,25,0.00
2013-8-22,80.0,69.2,57.0,56.0,53.3,50.0,81,59,39,30.13,29.98,16,8,23,0.00
2013-8-23,88.0,73.6,59.0,72.0,64.2,54.0,88,74,54,30.06,29.77,17,8,28,0.00
2013-8-24,99.0,82.5,71.0,73.0,68.1,-99.9,90,67,33,29.78,29.64,19,10,30,0.00
2013-8-25,93.0,81.6,69.0,73.0,70.7,68.0,96,72,47,29.85,29.71,9,4,13,0.00
2013-8-26,91.0,81.3,71.0,77.0,71.5,69.0,97,74,50,29.85,29.69,16,6,25,0.00
2013-8-27,91.0,76.1,68.0,72.0,68.2,64.0,93,79,42,29.82,29.71,13,8,19,0.00
2013-8-28,89.0,83.2,76.0,72.0,70.3,68.0,85,66,52,29.88,29.83,9,4,12,0.09
2013-8-29,97.0,80.6,71.0,74.0,70.6,67.0,95,74,42,29.85,29.73,21,6,31,0.02
2013-8-30,87.0,75.0,63.0,68.0,63.9,60.0,97,71,42,29.93,29.78,10,5,14,0.00
2013-8-31,89.0,72.0,63.0,70.0,62.0,-99.9,94,74,45,29.87,29.70,20,8,31,0.23